Simultaneous Nadir Overpasses (SNOs) Predictions

Prediction of SNOs between LANDSAT-8 and METOP-B Satellite Orbit:

Table of predicted SNOs for the next 14.0 days since TLE Epoch: 7/20/2019
Index Date (LANDSAT-8) Time (LANDSAT-8) Lat,Lon (LANDSAT-8) SZA (LANDSAT-8 ) Date (METOP-B) Time (METOP-B) Lat,Lon (METOP-B) SZA (METOP-B ) Distance(km) Time Diff (sec)
1 07/21/2019 07:06:37 -81.16, -65.95 117.28 07/21/2019 07:06:23 -81.17, -65.84 117.28 1.87 14
2 07/21/2019 07:56:03 81.17, 101.79 62.74 07/21/2019 07:57:03 81.18, 101.86 62.78 1.25 60
3 07/24/2019 02:40:53 -81.16, 0.39 116.74 07/24/2019 02:40:46 -81.16, 0.32 116.75 1.29 7
4 07/24/2019 03:30:18 81.19, 168.48 63.33 07/24/2019 03:31:25 81.18, 168.38 63.35 1.79 67
5 07/26/2019 21:25:44 81.11,-101.62 63.74 07/26/2019 21:24:30 81.13,-101.51 63.73 3.01 74
6 07/26/2019 22:15:08 -81.17, 67.10 116.10 07/26/2019 22:15:07 -81.17, 67.22 116.09 2.05 1
7 07/26/2019 23:04:34 81.18,-125.21 63.92 07/26/2019 23:05:47 81.18,-125.11 63.97 1.74 73
8 07/29/2019 16:59:57 81.15, -34.57 64.47 07/29/2019 16:58:50 81.14, -34.64 64.44 1.14 67
9 07/29/2019 17:49:23 -81.17, 133.44 115.47 07/29/2019 17:49:29 -81.16, 133.35 115.48 1.57 6
10 08/01/2019 12:34:13 81.14, 31.75 65.14 08/01/2019 12:33:12 81.15, 31.85 65.14 1.93 61




NCC Satellite Simultaneous Nadir Overpasses (SNOs) Prediction Service
